This is the latest recevied weather packets stored in our database for station/object W4ZHA. If no packets are shown the sender has not sent any weather packets the latest 10 day(s).
| Time | Temp. | Humidity | Pressure | Rain* | Wind** | Luminosity | Snow |
|---|---|---|---|---|---|---|---|
| 1787517405 | 31.11° C | 45% | 1015.5 hPa | 0 mm | - | 440 W/m² | - |
| 1787517101 | 31.67° C | 45% | 1015.8 hPa | 0 mm | - | 444 W/m² | - |
| 1787516800 | 31.67° C | 45% | 1015.8 hPa | 0 mm | - | 451 W/m² | - |
| 1787516496 | 32.22° C | 45% | 1015.8 hPa | 0 mm | - | 456 W/m² | - |
| 1787516190 | 31.67° C | 45% | 1015.5 hPa | 0 mm | - | 462 W/m² | - |
| 1787515885 | 32.78° C | 45% | 1015.5 hPa | 0 mm | - | 461 W/m² | - |
| 1787515581 | 32.22° C | 45% | 1015.5 hPa | 0 mm | - | 458 W/m² | - |
| 1787515281 | 32.78° C | 45% | 1015.8 hPa | 0 mm | - | 458 W/m² | - |
| 1787514977 | 31.67° C | 45% | 1015.8 hPa | 0 mm | - | 462 W/m² | - |
| 1787514674 | 30° C | 45% | 1015.8 hPa | 0 mm | - | 469 W/m² | - |
| 1787514374 | 30.56° C | 45% | 1015.8 hPa | 0 mm | - | 471 W/m² | - |
| 1787514074 | 31.67° C | 45% | 1016.1 hPa | 0 mm | - | 475 W/m² | - |
| 1787513769 | 32.78° C | 45% | 1016.1 hPa | 0 mm | - | 474 W/m² | - |
| 1787513465 | 31.67° C | 45% | 1015.8 hPa | 0 mm | - | 470 W/m² | - |
| 1787513161 | 31.67° C | 45% | 1016.1 hPa | 0 mm | - | 471 W/m² | - |
| 1787512857 | 30.56° C | 45% | 1015.8 hPa | 0 mm | - | 470 W/m² | - |
| 1787512553 | 31.67° C | 45% | 1016.1 hPa | 0 mm | - | 470 W/m² | - |
| 1787512248 | 30.56° C | 45% | 1016.1 hPa | 0 mm | - | 468 W/m² | - |
| 1787511943 | 30.56° C | 45% | 1016.1 hPa | 0 mm | - | 473 W/m² | - |
| 1787511639 | 30.56° C | 45% | 1016.1 hPa | 0 mm | - | 475 W/m² | - |
| 1787511337 | 30° C | 45% | 1016.5 hPa | 0 mm | - | 481 W/m² | - |
| 1787511032 | 30.56° C | 45% | 1016.1 hPa | 0 mm | - | 487 W/m² | - |
| 1787510726 | 30° C | 50% | 1016.1 hPa | 0 mm | - | 468 W/m² | - |
| 1787510422 | 29.44° C | 52% | 1016.1 hPa | 0 mm | - | 480 W/m² | - |
| 1787510117 | 29.44° C | 47% | 1016.5 hPa | 0 mm | - | 384 W/m² | - |
* Rain latest hour (hover to see other rain measurements)
** Current wind speed in m/s (hover to see current wind gust speed)